Regional Weather Roundup
Issued by NWS

Home | Current Version | Previous Version | Graphics & Text | Print | Product List | Glossary On
Versions: 1 2 3 4 5 6 7 8 9 10 11 12 13 14 15 16 17 18 19 20 21 22 23 24 25 26 27 28 29 30 31 32 33 34 35 36 37 38 39 40 41 42 43 44 45 46 47 48 49 50
000
ASUS43 KDMX 110908
RWRIA

WEATHER ROUNDUP FOR IOWA
NATIONAL WEATHER SERVICE DES MOINES IA
300 AM CST THU FEB 11 2016

NOTE: "FAIR" INDICATES FEW OR NO CLOUDS BELOW 12,000 FEET WITH NO
SIGNIFICANT WEATHER AND/OR OBSTRUCTIONS TO VISIBILITY.

* - THESE STATIONS ARE NOT NWS STATIONS...THUS NOT UNDER NWS
QUALITY CONTROL.  THEY ALSO DO NOT REPORT WEATHER SUCH
AS PRECIPITATION OR FOG.

IAZ001>003-012>014-020>022-031>034-043>046-111000-
   NORTHWEST IOWA

CITY           SKY/WX    TMP DP  RH WIND       PRES   REMARKS
CARROLL *      CLOUDY    10   5  79 CALM      30.26R
CHEROKEE *     CLOUDY    12   5  73 NE3       30.26S
DENISON *      CLOUDY    12   7  79 NE5       30.24R WCI   4
LE MARS *      CLOUDY    14   9  79 E6        30.26F WCI   5
ORANGE CITY *  CLOUDY    12   7  79 E5        30.22F WCI   4
SHELDON *      CLOUDY    12   7  79 E8        30.21F WCI   1
SIOUX CITY     CLOUDY    17   9  70 E7        30.26F WCI   8
SPENCER        CLOUDY    12   3  67 NE6       30.24F WCI   3
STORM LAKE *   CLOUDY    12   5  73 NE9       30.23S WCI   0
$$

IAZ055>058-069>071-079>083-090>094-111000-
   SOUTHWEST IOWA

CITY           SKY/WX    TMP DP  RH WIND       PRES   REMARKS
ATLANTIC *     PTCLDY    12   7  79 NE9       30.25R WCI   0
AUDUBON *      CLEAR      9   3  78 N6        30.25R WCI  -1
CLARINDA *     PTCLDY    21  18  86 NE10      30.24R WCI  10
COUNCIL BLFS * CLOUDY    14  12  92 NE12      30.24R WCI   0
CRESTON *      CLOUDY    16  12  86 NE7G14    30.22S WCI   6
HARLAN  *      CLEAR     12   7  79 NE7       30.29R WCI   2
LAMONI         CLOUDY    19  15  84 NE12      30.21R WCI   7
SHENANDOAH *   PTCLDY    21  19  93 NE14      30.24R WCI   8
$$

IAZ047>049-059>061-072>074-084-111000-
   CENTRAL IOWA

CITY           SKY/WX    TMP DP  RH WIND       PRES   REMARKS
AMES           CLOUDY     7  -2  66 NE6       30.26R WCI  -3
ANKENY *       CLOUDY     9   0  66 N6        30.27S WCI  -1
BOONE *        PTCLDY     5  -2  72 N7        30.24S WCI  -7
CHARITON *     MOCLDY    10   5  79 N7        30.23R WCI   0
DES MOINES     CLOUDY    12   1  61 NE12      30.26R WCI  -2
GRINNELL*      CLOUDY     7   1  78 N5        30.26R WCI  -2
KNOXVILLE *    MOCLDY    12   1  62 NE10      30.24R WCI  -1
MARSHALLTOWN   CLOUDY     3  -3  76 N7        30.25R WCI  -9
NEWTON *       CLEAR      7   0  72 N8        30.26R WCI  -6
PELLA *        CLOUDY    10   3  72 NE3       30.27R
$$

IAZ004>006-015-016-023>025-035-036-111000-
   NORTH CENTRAL IOWA

CITY           SKY/WX    TMP DP  RH WIND       PRES   REMARKS
ALGONA *       CLEAR      7   1  78 N3        30.25R
CLARION *      CLEAR     -6 -13  71 NE6       30.26F WCI -18
ESTHERVILLE    CLOUDY     1  -2  87 N5        30.24R WCI  -9
FORT DODGE *   CLOUDY     9   1  72 N6        30.27R WCI  -1
MASON CITY     CLOUDY     0  -6  76 N5        30.26R WCI -10
FOREST CITY *  CLEAR      0  -4  85 CALM      30.25R
WEBSTER CITY * MOCLDY     7   0  72 NE10      30.24S WCI  -8
IOWA FALLS *     N/A      1  -2  85 N5        30.27R WCI  -8
$$

IAZ007>011-017>019-026>030-037>042-050>054-066-111000-
   NORTHEAST IOWA

CITY           SKY/WX    TMP DP  RH WIND       PRES   REMARKS
CEDAR RAPIDS   CLOUDY     5   1  83 NW6       30.25R WCI  -6
CHARLES CITY * CLEAR      0  -8  71 N7        30.26R WCI -13
CLINTON *      PTCLDY     7   2  80 N7        30.25R WCI  -5
DECORAH *      CLEAR      3  -4  72 N6        30.23S WCI  -8
DUBUQUE        CLEAR      7  -1  70 N6        30.22R WCI  -3
MONTICELLO *   CLEAR      9   0  66 CALM      30.25R HAZE
OELWEIN *      CLEAR      1  -4  78 NW3       30.26R
WATERLOO       CLOUDY     2  -5  72 NW6       30.28R WCI  -9
$$

IAZ064-065-067-068-078-111000-
   EAST CENTRAL IOWA

CITY           SKY/WX    TMP DP  RH WIND       PRES   REMARKS
DAVENPORT      CLEAR      8   2  76 NW5       30.24R WCI   0
IOWA CITY      CLOUDY    11   1  64 N6        30.28R WCI   1
MT. PLEASANT * PTCLDY    14   7  73 N10       30.25R WCI   1
MUSCATINE *    CLEAR     10   3  72 N7        30.27R WCI   0
QUAD CITIES    PTCLDY    11   2  67 N5        30.25R WCI   3
$$

IAZ062-063-075>077-085>089-095>099-111000-
   SOUTHEAST IOWA

CITY           SKY/WX    TMP DP  RH WIND       PRES   REMARKS
BURLINGTON     PTCLDY    13   4  67 N7        30.23R WCI   3
FAIRFIELD *    CLOUDY    14   3  62 N9        30.25R WCI   2
FORT MADISON * CLOUDY    16   7  67 N7        30.23R WCI   6
KEOKUK *       CLOUDY    18  10  73 N6G13     30.22R WCI   9
OSKALOOSA *    MOCLDY    12   5  73 N10       30.26R WCI  -1
CENTERVILLE *  CLOUDY    18  10  73 N7        30.23R WCI   8
OTTUMWA        CLOUDY    13   5  70 N7        30.25R WCI   3
WASHINGTON *   CLEAR     10   3  72 N7        30.27R WCI   0
$$

ABBREVIATIONS USED IN REMARKS
   TC - TEMPERATURES IN CELSIUS
  WCI - WIND CHILL INDEX
   HX - HEAT INDEX
  VSB - VISIBILITY
$$




USA.gov is the U.S. government's official web portal to all federal, state and local government web resources and services.